{"data":{"norad_id":44543,"epoch":"2026-05-24T08:06:46.200672Z","epoch_age_seconds":135330,"freshness":"FRESH","line1":"1 44543U 19061B   26144.33803473  .00000052  00000+0  00000+0 0  9990","line2":"2 44543  54.3934 183.5003 0005463 340.7166 104.4121  1.86227242 45359","mean_motion":1.86227242,"eccentricity":0.0005463,"inclination_deg":54.3934,"raan_deg":183.5003,"arg_perigee_deg":340.7166,"mean_anomaly_deg":104.4121,"bstar":0,"rev_number":4535,"period_min":773.24884615968,"perigee_km":21513.181631405,"apogee_km":21543.672343217,"semimajor_km":27906.563987311,"source":"CELESTRAK","updated_at":"2026-05-25T13:38:24.222281Z"}}